KB2UHF-8 Weather Reports


Display with metric or nautical units.
time (UTC)temp
F
wind
direction
speed
MPH
gust
MPH
rain 1hr
in
rain 24hr
in
rain mn
in
humidity
%
barometer
mb
20260903235536 79 90 4.0 6.0 0.00 0.45 0.45 87 1012.7
20260903234517 79 113 4.0 8.0 0.00 0.45 0.45 87 1012.7
20260903233516 80 113 3.0 8.0 0.00 0.45 0.45 86 1012.7
20260903232516 80 113 5.0 8.0 0.00 0.45 0.45 86 1012.8
20260903231516 80 90 5.0 9.0 0.00 0.45 0.45 85 1012.6
20260903230516 80 113 4.0 7.0 0.00 0.45 0.45 84 1013.1
20260903225517 80 90 4.0 7.0 0.00 0.45 0.45 84 1013.0
20260903224516 80 90 6.0 10.0 0.00 0.45 0.45 83 1013.0
20260903223516 81 90 4.0 7.0 0.00 0.45 0.45 83 1012.8
20260903222516 81 90 3.0 6.0 0.00 0.45 0.45 83 1012.9
20260903221518 81 90 3.0 6.0 0.00 0.45 0.45 81 1012.9
20260903220518 81 0.0 2.0 0.00 0.45 0.45 83 1013.0
20260903215516 80 135 2.0 5.0 0.00 0.45 0.45 83 1013.2
20260903214517 80 158 2.0 5.0 0.00 0.45 0.45 82 1013.1
20260903213516 81 135 4.0 8.0 0.00 0.45 0.45 82 1012.9
20260903212516 81 135 3.0 8.0 0.00 0.45 0.45 81 1013.1
20260903211516 81 135 5.0 11.0 0.00 0.45 0.45 80 1013.0
20260903210516 81 135 3.0 8.0 0.00 0.45 0.45 84 1013.0
20260903205536 80 135 3.0 7.0 0.00 0.45 0.45 83 1013.0
20260903204516 79 135 2.0 4.0 0.00 0.45 0.45 84 1013.1
20260903203536 79 135 4.0 9.0 0.00 0.45 0.45 84 1013.2
20260903202516 79 113 4.0 8.0 0.00 0.45 0.45 83 1013.2
20260903201536 79 113 4.0 6.0 0.00 0.45 0.45 84 1013.2
20260903200516 79 90 2.0 4.0 0.00 0.45 0.45 83 1013.4
20260903195516 79 135 1.0 4.0 0.00 0.45 0.45 83 1013.7
20260903194516 79 0.0 2.0 0.00 0.45 0.45 84 1013.8
20260903193517 79 68 1.0 3.0 0.00 0.45 0.45 85 1013.5
20260903192536 78 0.0 2.0 0.00 0.45 0.45 86 1013.4
20260903191536 78 135 2.0 5.0 0.00 0.45 0.45 85 1013.1
20260903190516 77 135 4.0 8.0 0.00 0.45 0.45 87 1013.0
20260903185516 77 135 5.0 10.0 0.00 0.45 0.45 90 1013.0
20260903184516 76 90 4.0 6.0 0.00 0.45 0.45 91 1013.0
20260903183516 75 90 3.0 7.0 0.00 0.45 0.45 93 1013.2
20260903182516 75 90 1.0 4.0 0.00 0.45 0.45 94 1013.2
20260903181516 74 68 2.0 4.0 0.00 0.45 0.45 95 1013.5
20260903180516 73 135 4.0 8.0 0.00 0.45 0.45 95 1013.0
20260903175516 73 135 5.0 9.0 0.00 0.45 0.45 95 1013.1
20260903174516 73 135 4.0 8.0 0.00 0.45 0.45 97 1013.2
20260903173516 72 135 6.0 10.0 0.00 0.45 0.45 97 1013.0
20260903172516 72 135 5.0 10.0 0.00 0.45 0.45 97 1013.2
20260903171516 72 158 3.0 6.0 0.02 0.45 0.45 98 1013.7
20260903170536 71 158 2.0 5.0 0.04 0.45 0.45 98 1013.5
20260903165516 71 225 2.0 5.0 0.10 0.45 0.45 98 1013.9
20260903164536 70 203 1.0 6.0 0.14 0.45 0.45 98 1014.1
20260903163516 70 135 4.0 8.0 0.14 0.45 0.45 98 1013.8
20260903162516 70 0.0 0.0 0.16 0.45 0.45 97 1014.2
20260903161516 70 158 1.0 5.0 0.16 0.43 0.43 97 1014.4
20260903160516 70 180 3.0 6.0 0.15 0.41 0.41 97 1014.1
20260903155536 70 68 2.0 4.0 0.09 0.35 0.35 97 1013.5
20260903154516 70 135 2.0 4.0 0.06 0.31 0.31 97 1013.6
20260903153516 69 135 5.0 9.0 0.07 0.31 0.31 97 1013.4
20260903152536 69 113 3.0 6.0 0.05 0.29 0.29 97 1014.0
20260903151517 69 0.0 3.0 0.03 0.27 0.27 97 1014.3
20260903150536 70 293 3.0 8.0 0.02 0.26 0.26 97 1014.4
20260903145516 69 135 1.0 3.0 0.03 0.26 0.26 97 1013.8
20260903144516 69 68 2.0 6.0 0.04 0.25 0.25 97 1013.3
20260903143516 70 270 5.0 9.0 0.05 0.24 0.24 97 1013.3
20260903142516 69 248 1.0 3.0 0.09 0.24 0.24 97 1013.4
20260903141516 69 270 2.0 6.0 0.11 0.24 0.24 96 1014.0
20260903140516 69 113 3.0 7.0 0.13 0.24 0.24 96 1013.5
20260903135515 69 90 3.0 4.0 0.16 0.23 0.23 96 1014.1
20260903134516 69 270 2.0 7.0 0.16 0.21 0.21 96 1014.8
20260903133536 70 248 5.0 8.0 0.17 0.19 0.19 96 1015.7
20260903132516 70 248 6.0 11.0 0.14 0.15 0.15 95 1015.9
20260903131536 70 225 7.0 11.0 0.13 0.13 0.13 95 1015.8
20260903130515 70 270 8.0 14.0 0.11 0.11 0.11 94 1015.2
20260903125515 71 248 7.0 13.0 0.07 0.07 0.07 93 1014.9
20260903124516 71 248 7.0 14.0 0.05 0.05 0.05 94 1014.8
20260903123556 71 270 8.0 15.0 0.02 0.02 0.02 94 1014.0
20260903122515 71 270 7.0 15.0 0.01 0.01 0.01 93 1014.2
20260903121536 72 270 5.0 12.0 0.00 0.00 0.00 93 1014.4
20260903120515 72 270 6.0 11.0 0.00 0.00 0.00 94 1014.2
20260903115535 72 270 6.0 11.0 0.00 0.00 0.00 95 1014.1
20260903114535 71 248 2.0 4.0 0.00 0.00 0.00 94 1014.2
20260903113515 72 248 4.0 10.0 0.00 0.00 0.00 94 1014.3
20260903112516 72 225 3.0 6.0 0.00 0.00 0.00 94 1013.7
20260903111516 72 203 1.0 3.0 0.00 0.00 0.00 94 1013.3
20260903110536 72 180 1.0 2.0 0.00 0.00 0.00 94 1013.2
20260903105515 72 225 1.0 3.0 0.00 0.00 0.00 94 1013.3
20260903104515 72 180 2.0 6.0 0.00 0.00 0.00 94 1013.2
20260903103516 72 0.0 0.0 0.00 0.00 0.00 95 1013.0
20260903102515 72 0.0 0.0 0.00 0.00 0.00 95 1012.9
20260903101517 71 0.0 3.0 0.00 0.00 0.00 95 1012.9
20260903100515 71 0.0 2.0 0.00 0.00 0.00 95 1012.8
20260903095515 71 0.0 0.0 0.00 0.00 0.00 95 1012.9
20260903094515 71 0.0 0.0 0.00 0.00 0.00 95 1012.9
20260903093515 70 0.0 0.0 0.00 0.00 0.00 95 1012.9
20260903092515 70 0.0 0.0 0.00 0.00 0.00 95 1012.8
20260903091536 70 0.0 0.0 0.00 0.00 0.00 95 1012.8
20260903090516 70 135 1.0 2.0 0.00 0.00 0.00 95 1012.8
20260903085515 71 135 1.0 3.0 0.00 0.00 0.00 95 1012.9
20260903084515 71 0.0 2.0 0.00 0.00 0.00 95 1013.0
20260903083515 71 135 1.0 2.0 0.00 0.00 0.00 95 1013.1
20260903082515 71 113 2.0 4.0 0.00 0.00 0.00 96 1012.8
20260903081517 70 135 2.0 4.0 0.00 0.00 0.00 96 1012.8
20260903080537 70 135 2.0 4.0 0.00 0.00 0.00 97 1012.6
20260903075537 69 90 2.0 3.0 0.00 0.00 0.00 96 1012.6
20260903074517 70 90 3.0 3.0 0.00 0.00 0.00 95 1012.6
20260903073517 70 113 3.0 6.0 0.00 0.00 0.00 96 1012.8
20260903072517 70 113 3.0 4.0 0.00 0.00 0.00 96 1012.9
20260903071537 69 90 3.0 6.0 0.00 0.00 0.00 97 1012.9
20260903070517 69 90 2.0 3.0 0.00 0.00 0.00 96 1013.0
20260903065517 69 90 2.0 3.0 0.00 0.00 0.00 96 1013.0
20260903064517 69 68 2.0 3.0 0.00 0.00 0.00 96 1013.1
20260903063517 70 90 2.0 3.0 0.00 0.00 0.00 96 1013.2
20260903062517 70 68 3.0 4.0 0.00 0.00 0.00 96 1013.1
20260903061517 70 0.0 3.0 0.00 0.00 0.00 96 1013.0
20260903060517 70 68 1.0 3.0 0.00 0.00 0.00 96 1013.2
20260903055517 70 68 2.0 3.0 0.00 0.00 0.00 96 1013.2
20260903054517 70 68 2.0 3.0 0.00 0.00 0.00 96 1013.3
20260903053517 70 0.0 0.0 0.00 0.00 0.00 96 1013.4
20260903052539 70 0.0 0.0 0.00 0.00 0.00 95 1013.4
20260903051517 70 0.0 0.0 0.00 0.00 0.00 95 1013.4
20260903050517 70 0.0 0.0 0.00 0.00 0.00 95 1013.4
20260903045516 70 0.0 0.0 0.00 0.00 0.00 95 1013.5
20260903044556 70 0.0 0.0 0.00 0.00 0.00 94 1013.4
20260903043536 71 0.0 0.0 0.00 0.00 0.00 94 1013.5
20260903042536 71 0.0 0.0 0.00 0.00 0.00 94 1013.5
20260903041516 71 0.0 0.0 0.00 0.00 0.00 94 1013.5
20260903040516 71 0.0 0.0 0.00 0.00 0.00 93 1013.4
20260903035516 71 0.0 0.0 0.00 0.00 0.00 92 1013.5
20260903034515 72 0.0 0.0 0.00 0.00 0.00 91 1013.5
20260903033515 73 0.0 0.0 0.00 0.00 0.00 89 1013.6
20260903032516 74 0.0 0.0 0.00 0.00 0.00 88 1013.5
20260903031535 74 0.0 0.0 0.00 0.00 0.00 87 1013.5
20260903030516 74 0.0 0.0 0.00 0.00 0.00 86 1013.6
20260903025515 74 0.0 0.0 0.00 0.00 0.00 86 1013.6
20260903024516 74 0.0 0.0 0.00 0.00 0.00 85 1013.6
20260903023516 75 0.0 0.0 0.00 0.00 0.00 85 1013.5
20260903022535 75 0.0 0.0 0.00 0.00 0.00 86 1013.6
20260903021515 75 0.0 0.0 0.00 0.00 0.00 84 1013.4
20260903020535 76 0.0 0.0 0.00 0.00 0.00 82 1013.2
20260903015537 76 0.0 0.0 0.00 0.00 0.00 81 1013.1
20260903014515 77 0.0 0.0 0.00 0.00 0.00 80 1012.8
20260903013517 77 0.0 0.0 0.00 0.00 0.00 79 1012.7
20260903012515 77 0.0 0.0 0.00 0.00 0.00 79 1012.7
20260903011515 77 0.0 0.0 0.00 0.00 0.00 79 1012.7
20260903010515 78 0.0 0.0 0.00 0.00 0.00 79 1012.7
20260903005515 79 0.0 0.0 0.00 0.00 0.00 78 1012.5
20260903004535 79 0.0 1.0 0.00 0.00 0.00 77 1012.7
20260903003515 80 0.0 2.0 0.00 0.00 0.00 75 1012.8
20260903002517 82 0.0 3.0 0.00 0.00 0.00 72 1012.7
20260903001515 83 0.0 1.0 0.00 0.00 0.00 70 1012.9
20260903000535 83 0.0 2.0 0.00 0.00 0.00 70 1012.8